Weather History for KMCF - October, 2012

Change the Weather History Date:

Thursday, October 11, 2012

  Actual Average (WUND) Record (WUND)
Temperature  
Mean Temperature 75 °F -  
Max Temperature 86 °F - - (-1)
Min Temperature 64 °F - - (-1)
Cooling Degree Days 10    
Growing Degree Days 25 (Base 50)    
Moisture  
Dew Point 67 °F    
Average Humidity 81    
Maximum Humidity 100    
Minimum Humidity 52    
Precipitation  
Precipitation 0.00 in - - ()
Sea Level Pressure  
Sea Level Pressure 30.14 in    
Wind  
Wind Speed 7 mph (ENE)    
Max Wind Speed 15 mph    
Max Gust Speed -    
Visibility 9 miles    
Events      
Averages and records for this station are not official NWS values.
T = Trace of Precipitation, MM = Missing Value Source: NWS Daily Summary

Daily Weather History Graph

Daily Weather History Graph

Search for Another Location

Airport or City:

Trip Planner

Search our weather history database for the weather conditions in past years. The results will help you decide how hot, cold, wet, or windy it might be!

Date:

Astronomy

Oct. 11, 2012 Rise Set
Actual Time 7:28 AM EDT 7:04 PM EDT
Civil Twilight 7:04 AM EDT 7:28 PM EDT
Nautical Twilight 6:37 AM EDT 7:55 PM EDT
Astronomical Twilight 6:10 AM EDT 8:22 PM EDT
Moon 3:25 AM EDT (10/11) 4:23 PM EDT (10/11)
Length of Visible Light 12h 23m
Length of Day
11h 36m
Waning Crescent, 18% of the Moon is Illuminated
Oct 11
Waning Crescent
Oct 15
New
Oct 21
First Quarter
Oct 29
Full
Nov 6
Last Quarter

Hourly Weather History & Observations

Time (EDT) Temp. Heat Index Dew Point Humidity Pressure Visibility Wind Dir Wind Speed Gust Speed Precip Events Conditions
12:14 AM 71.6 °F - 66.2 °F 83% 30.12 in 6.0 mi NNE 3.5 mph - N/A   Haze
12:23 AM 69.8 °F - 66.2 °F 88% 30.12 in 3.0 mi NNE 3.5 mph - N/A   Haze
12:24 AM 69.8 °F - 66.2 °F 88% 30.12 in 3.0 mi NNE 3.5 mph - N/A   Haze
12:28 AM 69.8 °F - 66.2 °F 88% 30.12 in 4.0 mi NNE 4.6 mph - N/A   Haze
12:55 AM 69.3 °F - 66.4 °F 91% 30.12 in 10.0 mi NE 4.6 mph - N/A   Clear
1:55 AM 67.5 °F - 64.8 °F 91% 30.12 in 10.0 mi East 5.8 mph - N/A   Clear
2:55 AM 67.3 °F - 66.4 °F 97% 30.11 in 10.0 mi East 8.1 mph - N/A   Clear
3:55 AM 68.2 °F - 67.1 °F 96% 30.10 in 10.0 mi East 6.9 mph - N/A   Clear
4:55 AM 65.7 °F - 64.6 °F 96% 30.10 in 10.0 mi ENE 5.8 mph - N/A   Clear
5:55 AM 66.9 °F - 66.6 °F 99% 30.11 in 10.0 mi East 9.2 mph - N/A   Clear
6:55 AM 66.2 °F - 65.7 °F 98% 30.13 in 10.0 mi East 4.6 mph - N/A   Clear
7:08 AM 66.2 °F - 64.4 °F 94% 30.13 in 9.0 mi East 6.9 mph - N/A   Clear
7:17 AM 64.4 °F - 64.4 °F 100% 30.14 in 9.0 mi East 5.8 mph - N/A   Clear
7:55 AM 66.2 °F - 65.8 °F 99% 30.14 in 10.0 mi East 8.1 mph - N/A   Clear
8:55 AM 71.6 °F - 69.3 °F 92% 30.16 in 10.0 mi East 8.1 mph - N/A   Clear
9:55 AM 75.6 °F - 69.4 °F 81% 30.18 in 10.0 mi ENE 11.5 mph - N/A   Clear
10:55 AM 78.8 °F - 70.0 °F 74% 30.19 in 10.0 mi ENE 15.0 mph - N/A   Partly Cloudy
11:55 AM 80.6 °F 83.8 °F 69.6 °F 69% 30.18 in 10.0 mi ENE 11.5 mph - N/A   Clear
12:55 PM 82.6 °F 85.7 °F 68.4 °F 62% 30.17 in 10.0 mi East 8.1 mph - N/A   Clear
1:55 PM 85.6 °F 88.8 °F 68.0 °F 55% 30.15 in 10.0 mi East 8.1 mph - N/A   Clear
2:55 PM 86.2 °F 89.7 °F 68.2 °F 55% 30.13 in 10.0 mi NE 10.4 mph - N/A   Clear
3:55 PM 86.4 °F 90.0 °F 68.4 °F 55% 30.12 in 10.0 mi East 9.2 mph - N/A   Clear
4:55 PM 86.7 °F 89.6 °F 67.3 °F 52% 30.12 in 10.0 mi ENE 8.1 mph - N/A   Clear
5:55 PM 85.5 °F 88.2 °F 67.3 °F 54% 30.12 in 10.0 mi ENE 6.9 mph - N/A   Clear
6:55 PM 81.1 °F 83.7 °F 67.6 °F 63% 30.13 in 10.0 mi NE 5.8 mph - N/A   Partly Cloudy
7:55 PM 76.8 °F - 67.1 °F 72% 30.14 in 10.0 mi NE 5.8 mph - N/A   Scattered Clouds
8:55 PM 75.9 °F - 68.0 °F 76% 30.15 in 10.0 mi ENE 10.4 mph - N/A   Partly Cloudy
9:55 PM 74.8 °F - 68.0 °F 79% 30.16 in 10.0 mi East 10.4 mph - N/A   Clear
10:55 PM 72.3 °F - 67.6 °F 85% 30.17 in 10.0 mi ENE 12.7 mph - N/A   Clear
11:55 PM 71.8 °F - 67.5 °F 86% 30.17 in 10.0 mi East 12.7 mph - N/A   Clear